Notices

What's New in latest Release from April 7th, 2021:

- Updated Glossary, including Speed of Maximum Gust, and Total Hourly Precipitation

- Updated national and regional climate services offices contacts and prices information

- Addition of station inventory lists for 1981-2010, 1971-2000, and 1961-1990 Normals.

If you haven't already, please take our survey and provide feedback about our website: https://eccc.sondage-survey.ca/f/LanguageSelection.aspx?s=442ca660-fcf1-47c0-95a9-59707d6fd709

Hourly Data Report for November 21, 2018

CARBERRY CS
MANITOBA
Current Station Operator: ECCC - MSC

49°54'20.900" N
99°21'26.800" W
383.50 m
5010547
71170
WZE

Download Data

Hourly Data (November 2018)
Hourly Data Report for November 21, 2018
TIME
LST
Temp Definition
°C
Dew Point Definition
°C
Rel Hum Definition
%
Precip. Amount Definition
mm

Wind Dir Definition
10's deg

Wind Spd Definition
km/h
Visibility Definition
km
Stn Press Definition
kPa
Hmdx Definition


Wind Chill Definition


Weather Definition


00:00 -11.8 -14.6 79 0.0 7 21   97.74   -20 LegendNANA
01:00 -12.1 -15.0 79 0.0 8 19   97.77   -20 LegendNANA
02:00 -12.1 -15.3 77 0.0 8 17   97.80   -20 LegendNANA
03:00 -12.3 -15.3 78 0.0 8 13   97.83   -19 LegendNANA
04:00 -12.1 -14.8 80 0.0 10 13   97.81   -19 LegendNANA
05:00 -12.2 -15.5 77 0.0 10 20   97.81   -21 LegendNANA
06:00 -12.2 -15.4 77 0.0 11 17   97.81   -20 LegendNANA
07:00 -12.2 -15.3 78 0.0 11 19   97.82   -20 LegendNANA
08:00 -12.3 -15.4 77 0.0 11 18   97.81   -20 LegendNANA
09:00 -12.2 -15.9 74 0.0 11 19   97.84   -20 LegendNANA
10:00 -11.9 -15.3 76 0.0 11 18   97.86   -20 LegendNANA
11:00 -11.6 -15.2 75 0.0 12 21   97.84   -20 LegendNANA
12:00 -11.3 -14.9 74 0.0 13 21   97.72   -20 LegendNANA
13:00 -10.6 -14.5 73 0.0 13 19   97.68   -18 LegendNANA
14:00 -10.1 -14.4 70 0.0 14 18   97.65   -18 LegendNANA
15:00 -9.7 -13.9 71 0.0 13 18   97.59   -17 LegendNANA
16:00 -9.7 -13.3 75 0.0 12 16   97.54   -17 LegendNANA
17:00 -9.6 -12.8 78 0.0 13 15   97.52   -16 LegendNANA
18:00 -9.3 -12.1 80 0.0 14 18   97.49   -17 LegendNANA
19:00 -9.3 -11.4 85 0.0 15 19   97.42   -17 LegendNANA
20:00 -9.2 -11.2 85 0.0 15 19   97.34   -17 LegendNANA
21:00 -8.9 -10.9 86 0.0 14 19   97.28   -16 LegendNANA
22:00 -8.3 -10.0 87 0.0 15 19   97.22   -16 LegendNANA
23:00 -7.6 -9.1 89 0.0 15 18   97.13   -14 LegendNANA

Notes on Data Quality.

Legend

  • E = Estimated
  • M = Missing
  • NA = Not Available*
  • [empty] = Indicates an unobserved value
Date modified: